Location: Degersen
(52.2871°N, 9.5716°E)
Time: 22:28:46
(UTC+00:00)

COSMO-SKYMED 1 - Pass Details

Date: 20 January 2026
Orbit: 578 x 579 km, 97.9° (Epoch: 7 February)

Event Time Altitude Azimuth Distance (km) Brightness Sun altitude
Rises 04:31:15 0° 159° (SSE) 2,787 6.2 -25.1°
Reaches altitude 10° 04:33:23 10° 158° (SSE) 1,892 5.3 -24.8°
Maximum altitude 04:37:29 76° 74° (ENE) 605 2.5 -24.1°
Enters shadow 04:37:56 66° 19° (NNE) 636 2.5 -24.1°
